CZ-6A DEB, 61422

Orbit data source: Space-Track

CZ-6A DEB, 61422 is space debris in LEO originally from a launch on Tue, 06 Aug 2024 UTC launched from the Taiyaun Space Center, China (TSC). Debris objects in space refer to the collection of defunct objects orbiting the Earth. Examples of debris include non-operational satellites, rocket bodies, and fragments generated from explosions, collisions, or faulty payload assembly.

Loading next visibility...
Identifier
61422, 2024-140YP
Orbit
LEO
Country
Flag of CNCN / PRC
Related business
Manufacturer
SAST
Mission
Spacecraft
Bus & Motor
Unknown
Mass
Unknown
Launch date (UTC)
2024-08-06 (2 years ago)
Launch vehicle
Unknown
Launch site
Taiyaun Space Center, China (TSC)
Object type
Payload
Rocket body
Debris
Shape & HBR
Unknown shape, 0.1 m
Radar Cross Section
Medium (>0.1 m² and <1 m²)

Expand to show TLE details & history
Last TLE update: 13 hours ago

TLE from 13 hours ago
0 CZ-6A DEB
1 61422U 24140YP  26171.29437941  .00000529  00000-0  34960-3 0  9993
2 61422  88.7443 258.2598 0196176 305.9899  52.3222 13.91538583 92826
Epoch: 2026-06-20T07:03Z
TLE epoch observation values (Epoch: 2026-06-20T07:03:54.381Z)
Latitude
-0.00006°
Longitude
-116.22785°
Altitude
840.483 km
Speed
7.476 km/s
True Right ascension
17h 13m 02s
True Declination
0° 00' 00"
Sunlit
Object was in full shadow at epoch
Visualization orbit readout
Latitude
Unknown
Longitude
Unknown
Altitude
Unknown
Speed
Unknown
Apparent Right ascension
Unknown
Apparent Declination
Unknown
Sunlit
N/A
Visualization observer readout
Local Sidereal Time
07:13:49
Azimuth
Unknown
Elevation
Unknown
Doppler factor
Unknown
Orbital elements
Apogee altitude
1,063.413 km
Perigee altitude
777.059 km
Semi-major axis
7,298.373 km
Eccentricity
0.01962
Inclination
88.7443°
RAAN
258.2598°
Arg. of periapsis
305.9899°
True anomaly
54.12817°
Mean anomaly
52.3222°
Eccentric anomaly
53.22249°
Mean motion
3.481 °/min
Orbital period
103.42 mins
BSTAR
0.0003496
Loading maneuver chart data...
Computing Atmospheric mass density...
Loading historical data...
Loading historical data...
Loading historical data...
Loading historical data...
Loading historical data...
Loading historical data...
Loading historical data...

Documentation

Showing up to 5 results
|